Regional Weather Roundup
Issued by NWS

Home | Current Version | Previous Version | Text Only | Print | Product List | Glossary Off
Versions: 1 2 3 4 5 6 7 8 9 10 11 12 13 14 15 16 17 18 19 20 21 22 23 24 25 26 27 28 29 30 31 32 33 34 35 36 37 38 39 40 41 42 43 44 45 46 47 48 49 50

000
ASUS45 KABQ 202010
RWRNM
NEW MEXICO REGIONAL WEATHER ROUNDUP
NATIONAL WEATHER SERVICE ALBUQUERQUE NM
200 PM MDT SUN AUG 20 2017

NOTE: "FAIR" MEANS FEW OR NO CLOUDS BELOW 12,000 FEET AGL WITH NO
       SIGNIFICANT WEATHER OR OBSTRUCTIONS TO VISION.

      THIS PRODUCT IS RELEASED AS TWO VERSIONS.  ONE VERSION NEAR
      THE TOP OF THE HOUR CONTAINING PRELIMINARY DATA FROM ALBUQUERQUE
      AND OTHER STATIONS.  A FINAL VERSION WITH ADDITIONAL DATA IS
      ISSUED ABOUT 10 MINUTES AFTER THE HOUR.

NMZ501-503-504-510>518-202100-
NORTHWEST PLATEAU/NORTHCENTRAL MOUNTAINS

CITY           SKY/WX    TMP DP  RH WIND       PRES   REMARKS
FARMINGTON     FAIR      85  43  22 SE5       30.09F
LOS ALAMOS     PTSUNNY   72  49  44 S12       30.28S
SANTA FE       PTSUNNY   74  50  42 S12       30.22S
TAOS           CLOUDY    74  43  32 SE22G30   30.26R THUNDER
ANGEL FIRE     CLOUDY    60  46  60 SW5       30.35R

$$
NMZ402-403-502-505>509-202100-
WESTCENTRAL MOUNTAINS/SOUTHWEST MOUNTAINS

CITY           SKY/WX    TMP DP  RH WIND       PRES   REMARKS
GALLUP         FAIR      78  40  25 CALM      30.21F
GRANTS         PTSUNNY   77  40  26 SE13      30.24S
SILVER CITY    CLOUDY    70  57  64 S3        30.19F

$$
NMZ407-409-411-412-202100-
SOUTHERN DESERTS

CITY           SKY/WX    TMP DP  RH WIND       PRES   REMARKS
DEMING         CLOUDY    70  63  78 SE6       30.15F
LAS CRUCES     CLOUDY    66  64  90 NW3       30.16F
HOLLOMAN AFB   PTSUNNY   66  66 100 N10       30.15F
ALAMOGORDO     PTSUNNY   66  64  94 N13       30.15F
T OR C         LGT RAIN  72  55  55 N7        30.16F

$$
NMZ519>523-202100-
CENTRAL VALLEYS/CENTRAL HIGHLANDS

CITY           SKY/WX    TMP DP  RH WIND       PRES   REMARKS
ALBUQUERQUE    LGT RAIN  73  54  51 S17       30.19R
DOUBLE EAGLE   SHOWER    73  52  46 S14       30.22R
MORIARTY ARPT  FAIR      77  51  40 SW14      30.23F
CLINES CORNERS FAIR      70  53  54 SW21      30.28F
BELEN          CLOUDY    73  53  49 S21       30.18S
SOCORRO        CLOUDY    72  55  55 S8        30.18F

$$
NMZ524>526-539-540-202100-
SOUTHCENTRAL MOUNTAINS

CITY           SKY/WX    TMP DP  RH WIND       PRES   REMARKS
RUIDOSO        NOT AVBL

$$
NMZ527>531-202100-
NORTHEAST HIGHLANDS/NORTHEAST PLAINS

CITY           SKY/WX    TMP DP  RH WIND       PRES   REMARKS
LAS VEGAS      FAIR      75  51  43 S15       30.24S
RATON          FAIR      81  50  33 S12       30.16F
CLAYTON        FAIR      82  58  43 S20G25    30.09F

$$
NMZ532>537-202100-
EASTCENTRAL PLAINS

CITY           SKY/WX    TMP DP  RH WIND       PRES   REMARKS
SANTA ROSA     FAIR      83  53  36 S10G17    30.10F
TUCUMCARI      FAIR      90  59  35 SW14      30.04S
CANNON AFB     FAIR      86  60  40 SW14G21   30.10F
CLOVIS AIRPORT FAIR      81  67  62 S13       30.10F HAZE

$$
NMZ028-029-538-202100-
SOUTHEAST PLAINS

CITY           SKY/WX    TMP DP  RH WIND       PRES   REMARKS
ROSWELL        FAIR      91  59  33 SE12      30.03F
ARTESIA        FAIR      88  63  42 SE10G16   30.03F
CARLSBAD       FAIR      86  67  52 S13       30.00F THUNDER
HOBBS          PTSUNNY   90  57  33 S9        30.06F


$$




USA.gov is the U.S. government's official web portal to all federal, state and local government web resources and services.